STARLINK-35132

Last updated on Tue Dec 16 2025 00:02:05 GMT+0000 (Coordinated Universal Time)

1 66461U 25262F 25349.22966000 .00050055 00000+0 11952-2 0 9992 2 66461 43.0001 57.1157 0001631 265.9566 94.1104 15.40762000 5941
UTC large
Height (km)
Speed (km/s)
/
Latitude / Longitude
Inclination (degrees)
Orbital Period (minutes)
Azimuth
Elevation
Range (km)
Doppler Factor

Next 0 passes for location: London (51.5072 / 0.1276)

Sorry there are no passes over London.